Weather History for KRAL - May, 2013

Change the Weather History Date:

Friday, May 24, 2013

  Actual Average Record
Temperature  
Mean Temperature 70 °F 69 °F  
Max Temperature 80 °F 81 °F 99 °F (1938)
Min Temperature 59 °F 57 °F 39 °F (1916)
Degree Days  
Heating Degree Days 0 0  
Month to date heating degree days 6 22  
Since 1 July heating degree days 1168 1442  
Cooling Degree Days 5 4  
Month to date cooling degree days 158 83  
Year to date cooling degree days 248 146  
Growing Degree Days 18 (Base 50)    
Moisture  
Dew Point 50 °F    
Average Humidity 55    
Maximum Humidity 75    
Minimum Humidity 35    
Precipitation  
Precipitation 0.00 in 0.00 in 0.12 in (1977)
Month to date precipitation 0.10 0.30  
Year to date precipitation 2.21 9.09  
Since 1 July precipitation 4.12  
Snow  
Snow 0.00 in - - ()
Month to date snowfall 0.0  
Year to date snowfall 0.0  
Since 1 July snowfall 0.0  
Snow Depth 0.00 in    
Sea Level Pressure  
Sea Level Pressure 29.91 in    
Wind  
Wind Speed 3 mph (West)    
Max Wind Speed 17 mph    
Max Gust Speed 23 mph    
Visibility 10 miles    
Events      
T = Trace of Precipitation, MM = Missing Value Source: NWS Daily Summary

Daily Weather History Graph

Daily Weather History Graph

Search for Another Location

Airport or City:

Trip Planner

Search our weather history database for the weather conditions in past years. The results will help you decide how hot, cold, wet, or windy it might be!

Date:

Astronomy

May. 24, 2013 Rise Set
Actual Time 5:42 AM PDT 7:50 PM PDT
Civil Twilight 5:14 AM PDT 8:19 PM PDT
Nautical Twilight 4:40 AM PDT 8:53 PM PDT
Astronomical Twilight 4:02 AM PDT 9:31 PM PDT
Moon 7:39 PM PDT (5/24) 5:16 AM PDT (5/24)
Length of Visible Light 15h 04m
Length of Day
14h 08m
Full, 100% of the Moon is Illuminated
May 24
Full
May 24
Full
May 31
Last Quarter
Jun 8
New
Jun 16
First Quarter

Hourly Weather History & Observations

Time (PDT) Temp. Dew Point Humidity Pressure Visibility Wind Dir Wind Speed Gust Speed Precip Events Conditions
12:53 AM 59.0 °F 52.0 °F 78% 29.90 in 10.0 mi Calm Calm - N/A   Overcast
1:53 AM 59.0 °F 52.0 °F 78% 29.89 in 10.0 mi Calm Calm - N/A   Overcast
2:53 AM 60.1 °F 52.0 °F 75% 29.88 in 10.0 mi Calm Calm - N/A   Overcast
3:53 AM 60.1 °F 52.0 °F 75% 29.89 in 10.0 mi Calm Calm - N/A   Overcast
4:53 AM 61.0 °F 52.0 °F 72% 29.89 in 10.0 mi Calm Calm - N/A   Overcast
5:53 AM 60.1 °F 52.0 °F 75% 29.91 in 10.0 mi West 3.5 mph - N/A   Overcast
6:53 AM 61.0 °F 51.1 °F 70% 29.93 in 10.0 mi Calm Calm - N/A   Overcast
7:25 AM 60.8 °F 50.0 °F 68% 29.97 in 10.0 mi Calm Calm - N/A   Overcast
7:53 AM 61.0 °F 50.0 °F 67% 29.94 in 10.0 mi West 4.6 mph - N/A   Overcast
8:53 AM 63.0 °F 51.1 °F 65% 29.94 in 10.0 mi Calm Calm - N/A   Overcast
9:53 AM 64.0 °F 48.9 °F 58% 29.94 in 10.0 mi Calm Calm - N/A   Mostly Cloudy
10:53 AM 66.9 °F 48.0 °F 51% 29.94 in 10.0 mi Calm Calm - N/A   Mostly Cloudy
11:53 AM 71.1 °F 48.0 °F 44% 29.94 in 10.0 mi Variable 5.8 mph - N/A   Clear
12:53 PM 72.0 °F 48.9 °F 44% 29.93 in 10.0 mi Calm Calm - N/A   Clear
1:53 PM 75.9 °F 46.9 °F 36% 29.91 in 10.0 mi Variable 3.5 mph - N/A   Clear
2:53 PM 78.1 °F 48.9 °F 36% 29.89 in 10.0 mi WNW 9.2 mph - N/A   Clear
3:53 PM 77.0 °F 50.0 °F 39% 29.88 in 10.0 mi West 10.4 mph 16.1 mph N/A   Clear
4:53 PM 73.9 °F 51.1 °F 45% 29.88 in 10.0 mi West 15.0 mph 23.0 mph N/A   Partly Cloudy
5:53 PM 72.0 °F 51.1 °F 48% 29.88 in 10.0 mi WNW 10.4 mph 19.6 mph N/A   Clear
6:53 PM 70.0 °F 51.1 °F 51% 29.88 in 10.0 mi West 10.4 mph - N/A   Clear
7:53 PM 66.9 °F 50.0 °F 54% 29.89 in 10.0 mi West 8.1 mph - N/A   Clear
8:53 PM 64.9 °F 48.9 °F 56% 29.90 in 10.0 mi West 3.5 mph - N/A   Clear
9:53 PM 62.1 °F 48.0 °F 60% 29.93 in 10.0 mi West 5.8 mph - N/A   Partly Cloudy
10:53 PM 60.1 °F 48.0 °F 64% 29.95 in 10.0 mi Calm Calm - N/A   Overcast
11:53 PM 60.1 °F 48.0 °F 64% 29.96 in 10.0 mi Calm Calm - N/A   Overcast